TimePST,TemperatureF,Dew PointF,Humidity,Sea Level PressureIn,VisibilityMPH,Wind Direction,Wind SpeedMPH,Gust SpeedMPH,PrecipitationIn,Events,Conditions,WindDirDegrees,DateUTC
12:53 AM,46.9,41.0,80,30.00,10.0,Variable,3.5,-,0.00,Rain,Light Rain,0,2012-12-05 08:53:00
1:53 AM,44.1,39.9,85,30.04,10.0,Calm,Calm,-,0.02,,Mostly Cloudy,0,2012-12-05 09:53:00
2:53 AM,44.1,41.0,89,30.08,10.0,NNW,6.9,-,0.00,Rain,Light Rain,330,2012-12-05 10:53:00
3:53 AM,43.0,39.0,86,30.10,10.0,Calm,Calm,-,0.00,,Mostly Cloudy,0,2012-12-05 11:53:00
4:53 AM,43.0,37.9,82,30.12,10.0,Calm,Calm,-,N/A,,Mostly Cloudy,0,2012-12-05 12:53:00
6:53 AM,37.0,36.0,96,30.17,6.0,Calm,Calm,-,N/A,,Clear,0,2012-12-05 14:53:00
7:30 AM,33.8,33.8,100,30.18,10.0,Calm,Calm,-,N/A,,Mostly Cloudy,0,2012-12-05 15:30:00
7:37 AM,35.6,33.8,93,30.18,10.0,Calm,Calm,-,N/A,,Clear,0,2012-12-05 15:37:00
7:48 AM,33.8,33.8,100,30.18,0.2,Calm,Calm,-,0.01,Fog,Patches of Fog,0,2012-12-05 15:48:00
7:53 AM,34.0,34.0,100,30.19,0.2,Calm,Calm,-,0.01,Fog,Patches of Fog,0,2012-12-05 15:53:00
8:03 AM,33.8,33.8,100,30.19,0.2,Calm,Calm,-,N/A,Fog,Patches of Fog,0,2012-12-05 16:03:00
8:30 AM,33.8,33.8,100,30.19,0.5,Calm,Calm,-,N/A,Fog,Fog,0,2012-12-05 16:30:00
8:35 AM,33.8,33.8,100,30.20,1.0,Calm,Calm,-,N/A,,Mostly Cloudy,0,2012-12-05 16:35:00
8:53 AM,36.0,36.0,100,30.21,6.0,Calm,Calm,-,N/A,,Partly Cloudy,0,2012-12-05 16:53:00
9:53 AM,39.9,37.9,93,30.22,10.0,Calm,Calm,-,N/A,,Clear,0,2012-12-05 17:53:00
10:53 AM,43.0,39.0,86,30.23,10.0,Calm,Calm,-,N/A,,Clear,0,2012-12-05 18:53:00
11:53 AM,46.0,39.9,79,30.23,10.0,Calm,Calm,-,N/A,,Clear,0,2012-12-05 19:53:00
12:53 PM,48.9,39.9,71,30.22,10.0,Calm,Calm,-,N/A,,Mostly Cloudy,0,2012-12-05 20:53:00
1:53 PM,50.0,37.0,61,30.22,10.0,Calm,Calm,-,N/A,,Overcast,0,2012-12-05 21:53:00
2:53 PM,46.9,39.9,77,30.22,10.0,Calm,Calm,-,0.00,,Overcast,0,2012-12-05 22:53:00
3:53 PM,46.9,39.9,77,30.23,10.0,SSE,4.6,-,0.00,,Mostly Cloudy,160,2012-12-05 23:53:00
4:53 PM,45.0,39.0,80,30.23,10.0,Calm,Calm,-,N/A,,Scattered Clouds,0,2012-12-06 00:53:00
5:53 PM,42.1,39.9,92,30.23,10.0,Calm,Calm,-,N/A,,Clear,0,2012-12-06 01:53:00
6:53 PM,39.0,37.0,93,30.24,10.0,Calm,Calm,-,N/A,,Clear,0,2012-12-06 02:53:00
7:53 PM,37.9,37.0,97,30.25,10.0,NW,3.5,-,N/A,,Scattered Clouds,320,2012-12-06 03:53:00
8:53 PM,37.9,36.0,93,30.26,6.0,Calm,Calm,-,N/A,,Partly Cloudy,0,2012-12-06 04:53:00
9:33 PM,35.6,35.6,100,30.25,10.0,Calm,Calm,-,N/A,,Scattered Clouds,0,2012-12-06 05:33:00
9:53 PM,37.0,36.0,96,30.26,10.0,Calm,Calm,-,N/A,,Overcast,0,2012-12-06 05:53:00
10:08 PM,37.4,35.6,93,30.25,2.0,Calm,Calm,-,N/A,,Overcast,0,2012-12-06 06:08:00
10:16 PM,37.4,35.6,93,30.25,7.0,Calm,Calm,-,N/A,,Mostly Cloudy,0,2012-12-06 06:16:00
10:48 PM,35.6,35.6,100,30.24,2.5,Calm,Calm,-,N/A,,Partly Cloudy,0,2012-12-06 06:48:00
10:53 PM,35.1,34.0,96,30.25,1.8,Calm,Calm,-,N/A,,Scattered Clouds,0,2012-12-06 06:53:00
11:01 PM,35.6,35.6,100,30.24,1.2,Calm,Calm,-,N/A,,Mostly Cloudy,0,2012-12-06 07:01:00
11:07 PM,37.4,35.6,93,30.24,3.0,Calm,Calm,-,N/A,,Mostly Cloudy,0,2012-12-06 07:07:00
11:18 PM,37.4,35.6,93,30.24,1.8,Calm,Calm,-,N/A,,Overcast,0,2012-12-06 07:18:00
11:24 PM,37.4,37.4,100,30.24,0.2,Calm,Calm,-,N/A,Fog,Fog,0,2012-12-06 07:24:00
11:33 PM,37.4,37.4,100,30.23,0.2,Calm,Calm,-,N/A,Fog,Fog,0,2012-12-06 07:33:00
11:53 PM,37.9,37.0,97,30.25,0.2,North,3.5,-,0.00,Fog-Snow,Light Snow,350,2012-12-06 07:53:00